Theta_e
307 308 309 309 310 310 308 302 301 300 302 304 303 303 303 304 300 301 302 305 307 308 302 302 301 300 300 298 298 297 302 302 302 300 301 297 298 296 296 297 297 297 297 299 301
309 310 310 308 306 307 302 299 299 299 300 300 301 301 301 305 299 298 302 305 306 306 302 301 300 300 298 299 298 298 299 300 297 297 298 298 298 298 299 298 298 298 299 300 301
314 314 313 313 311 306 303 299 298 299 299 300 300 300 301 302 298 298 300 302 302 302 302 301 300 300 299 299 299 298 298 298 298 298 299 299 299 298 299 299 297 298 298 299 300
314 314 314 314 313 309 306 303 299 297 298 298 299 300 302 300 301 299 299 300 301 302 302 301 299 300 299 300 300 299 300 298 298 300 299 300 299 299 297 299 298 296 297 298 298
314 314 315 314 314 312 310 307 301 298 298 297 298 300 301 296 298 298 300 301 302 302 301 300 300 299 300 301 300 300 300 300 300 300 300 300 300 299 298 297 296 296 296 297 297
315 315 316 316 315 314 312 309 304 298 297 298 300 298 298 297 298 298 300 301 301 302 301 301 301 299 300 301 299 300 300 300 300 301 300 300 300 299 298 296 296 297 298 297 297
316 316 316 316 315 315 313 311 304 299 298 298 300 300 296 296 297 299 300 301 301 301 301 301 301 301 300 301 300 299 300 300 300 300 300 298 297 298 297 298 298 297 297 296 296
316 316 316 315 315 314 312 311 305 299 301 297 298 298 297 297 298 299 301 301 302 302 301 302 302 300 300 299 297 297 297 297 298 299 300 298 297 297 296 296 297 296 296 295 295
316 316 316 315 315 314 312 311 305 300 300 297 298 297 296 297 297 298 300 300 301 302 301 302 299 297 299 299 298 296 297 298 298 299 299 300 299 297 296 297 297 296 295 294 294
317 316 316 315 315 312 310 309 305 303 303 299 298 300 296 295 296 298 300 301 301 300 300 300 297 297 295 297 300 296 296 298 298 297 298 298 298 298 296 295 296 294 293 293 294
317 316 316 315 314 311 308 308 305 305 300 295 294 295 295 296 297 298 299 300 298 298 299 298 299 297 298 297 295 296 299 299 297 297 298 297 296 297 296 294 293 292 292 293 293
317 316 316 315 312 309 307 298 298 298 303 298 294 294 295 296 297 297 300 298 296 297 296 296 297 298 298 299 299 298 294 294 296 297 298 296 296 296 294 294 294 295 294 293 292
316 316 314 312 310 308 301 297 297 297 300 301 293 294 293 296 298 297 299 298 294 294 292 296 300 298 299 299 299 298 295 294 298 297 294 294 295 293 294 295 296 294 293 292 292
312 312 309 308 308 305 299 298 297 297 299 303 295 295 296 296 299 297 298 298 297 294 296 296 299 300 300 300 297 296 297 298 298 293 292 293 295 295 294 294 296 295 293 292 291
309 309 309 308 308 303 301 298 297 298 305 298 294 294 295 298 297 298 298 298 300 297 293 297 300 300 298 299 296 297 296 297 293 291 290 290 291 295 294 295 294 294 293 292 290
309 309 309 307 306 303 301 300 298 304 303 298 294 295 299 297 297 296 298 296 297 298 297 293 296 297 298 296 296 293 291 289 286 283 289 285 290 295 294 294 295 295 293 292 291
308 309 308 306 303 302 303 299 301 301 297 299 296 296 296 297 297 296 297 297 297 295 291 292 296 295 296 297 295 292 286 290 292 290 295 277 290 296 293 292 292 293 291 290 289
308 309 305 304 303 303 302 297 296 292 291 302 296 300 300 295 296 295 297 296 295 293 287 290 296 291 295 295 291 293 287 290 288 291 290 280 290 295 291 291 290 289 289 289 289
308 307 306 303 302 303 299 296 297 294 303 301 303 298 297 297 295 293 296 294 297 291 294 290 292 293 296 295 292 290 290 287 282 275 284 286 287 290 291 286 290 290 290 290 289
307 306 302 302 303 303 297 300 297 300 296 299 303 300 297 293 299 293 298 296 298 294 289 291 292 288 293 294 291 289 289 290 285 288 288 288 281 293 289 286 283 287 285 285 286
307 301 301 302 303 300 302 299 298 301 298 299 302 298 299 294 294 292 297 297 297 294 291 286 287 289 294 291 292 292 290 286 286 289 290 287 294 285 286 285 285 285 285 284 284
305 298 300 302 300 300 304 302 300 300 295 297 297 300 296 294 295 289 296 295 294 292 294 292 290 288 290 292 292 291 290 292 293 289 285 289 293 285 284 277 275 283 286 285 281
301 301 298 300 303 294 301 300 300 301 296 295 296 298 296 297 296 296 295 296 294 294 294 294 287 288 296 292 291 292 292 292 289 291 288 291 297 284 276 279 283 281 286 287 281
298 300 295 295 298 302 300 299 303 297 299 297 297 295 296 295 295 299 298 296 294 295 297 296 293 292 298 294 286 292 294 293 293 289 294 294 297 297 297 296 293 288 285 283 280
299 298 295 300 301 301 302 303 300 301 297 295 293 297 296 301 295 294 295 296 295 297 297 296 291 292 290 289 285 289 289 293 292 292 294 299 293 296 297 296 294 285 287 285 283
299 297 297 299 296 297 300 301 301 301 301 300 294 297 295 296 299 299 295 296 297 295 295 293 293 284 285 292 292 291 292 292 293 293 291 294 294 294 294 292 288 285 283 283 282
296 298 299 299 299 299 299 299 299 299 299 300 298 297 297 297 295 296 296 297 298 295 296 294 288 286 291 285 284 291 290 293 287 284 290 289 292 279 288 284 283 285 280 282 282
Wind_Speed
17 17 17 17 17 16 14 12 12 11 9 9 9 9 7 6 10 10 9 12 12 16 10 3 5 7 7 4 4 2 4 2 5 6 3 1 2 1 1 1 1 2 4 2 12
18 21 22 22 22 19 16 13 12 11 9 8 9 9 9 5 3 14 11 15 15 12 6 6 3 6 4 3 4 4 3 6 2 3 3 2 0 1 1 2 1 1 1 5 9
19 21 23 24 24 23 20 14 11 10 9 8 9 10 8 2 1 4 18 15 12 9 0 3 5 4 5 4 4 1 3 4 2 2 2 2 2 1 2 4 7 5 6 5 6
18 20 22 24 25 23 23 17 11 10 9 8 9 11 4 2 0 8 19 15 11 5 4 3 4 4 4 3 1 4 2 1 3 2 2 1 2 3 6 4 2 5 4 3 6
17 19 21 23 25 24 24 23 11 9 10 8 9 8 2 5 2 12 15 13 9 6 8 3 3 3 5 4 2 3 2 1 1 1 3 2 5 5 7 10 6 4 5 7 8
17 19 21 22 23 26 25 24 12 7 9 7 8 5 2 4 5 13 12 11 14 13 10 8 3 3 6 3 3 2 2 1 1 1 1 3 3 1 4 2 7 6 5 6 8
16 18 20 22 24 24 25 25 11 6 8 6 6 4 7 3 5 12 10 11 12 11 4 6 2 3 4 4 2 2 3 2 2 1 2 2 5 8 4 2 6 5 5 6 8
16 18 20 22 23 25 24 23 10 5 7 5 5 3 3 2 4 13 12 6 8 8 5 5 6 6 4 3 5 4 4 1 0 4 2 2 8 2 2 5 7 7 7 6 6
16 17 19 20 23 26 23 22 6 4 5 5 2 3 2 2 4 11 11 5 5 5 7 4 5 4 3 4 4 6 2 2 4 4 4 2 8 4 3 4 9 11 9 6 6
15 16 18 21 22 25 22 15 4 2 5 2 4 4 5 3 5 8 7 6 4 2 2 6 5 3 4 4 3 4 1 2 4 4 3 6 17 20 8 10 14 11 9 6 6
14 14 16 20 21 22 22 3 7 4 11 3 3 2 3 7 2 8 7 2 3 7 4 4 5 1 1 1 3 5 2 2 4 2 4 5 11 23 14 8 9 10 7 6 6
11 11 15 17 19 15 13 7 3 1 4 2 2 2 2 4 3 7 8 3 5 2 3 6 2 1 5 3 3 3 2 4 4 1 3 7 20 18 8 5 4 2 4 4 4
10 11 13 15 12 11 17 7 2 1 1 3 1 2 2 4 2 6 5 2 5 4 4 4 1 3 1 1 2 1 3 2 3 7 3 7 8 5 3 3 3 3 3 3 7
8 10 11 11 2 6 4 5 2 1 4 3 3 2 1 1 3 2 4 3 4 3 3 2 1 2 1 1 3 1 1 1 2 4 3 5 5 7 4 7 4 5 4 6 7
7 8 8 10 2 3 3 5 2 1 4 3 3 3 3 3 2 4 3 2 3 2 5 4 3 2 1 0 2 1 3 3 3 4 3 5 2 7 4 5 4 4 6 7 8
7 6 6 4 5 4 5 4 0 5 5 3 3 4 4 5 4 5 3 5 3 4 2 3 1 2 1 3 3 4 4 5 3 3 2 3 2 6 3 4 2 2 3 6 6
7 5 4 4 2 6 6 1 5 4 3 5 3 4 1 3 3 5 3 3 0 4 4 5 2 3 1 2 2 4 5 3 5 4 4 1 1 11 6 5 5 7 10 7 6
4 5 5 5 5 6 3 5 4 3 5 2 2 1 2 5 3 5 2 2 2 4 3 3 5 2 4 2 4 2 5 4 5 2 5 2 6 6 7 5 7 8 8 7 8
2 4 2 6 6 5 4 3 7 5 1 2 1 4 4 1 2 3 0 2 2 4 5 3 4 1 4 2 3 2 1 2 7 2 3 2 8 12 5 6 4 5 6 7 6
2 2 4 6 4 3 4 3 2 2 1 1 2 2 2 3 2 4 1 3 3 1 2 4 3 1 2 1 5 4 3 4 3 2 5 5 6 6 5 5 4 4 6 8 7
1 3 5 3 2 3 1 5 4 4 1 1 2 2 5 2 3 2 3 2 2 3 3 4 3 4 1 4 7 1 1 4 3 3 4 3 7 8 8 6 8 9 8 9 9
1 2 5 1 3 1 2 3 2 3 1 2 2 5 5 3 3 2 5 5 4 5 5 4 4 3 7 0 2 3 5 4 4 5 2 1 9 0 7 5 4 10 10 11 8
2 2 5 2 2 2 1 2 4 3 2 1 2 4 2 3 1 4 3 0 6 6 5 5 1 3 6 3 3 3 5 3 3 2 7 4 8 3 3 5 8 10 13 11 7
2 2 3 3 1 3 3 5 5 2 2 3 3 2 2 2 3 2 3 2 5 4 4 5 4 6 6 5 4 3 4 7 5 3 5 14 24 21 24 18 12 9 9 9 9
1 3 3 2 3 5 4 1 3 3 3 3 3 6 6 4 2 5 4 2 3 5 3 3 5 3 5 6 5 6 7 11 12 10 8 27 10 23 22 19 17 7 11 11 11
1 1 1 2 2 3 7 6 11 10 7 5 4 4 7 6 7 6 5 4 6 2 6 4 3 2 5 6 5 6 14 19 18 14 15 22 26 27 26 16 12 11 9 12 11
2 3 1 3 2 3 8 5 5 6 8 14 12 5 7 15 12 6 5 4 4 7 8 6 5 3 5 4 6 8 11 14 6 5 9 7 15 3 10 8 8 10 7 10 11
Wind_Direction
30 25 21 21 17 12 12 16 20 22 19 21 22 17 14 15 35 53 41 342 328 327 342 359 65 71 70 71 48 127 69 192 206 161 172 284 165 109 196 211 305 188 152 151 151
35 34 28 24 23 17 13 12 16 20 19 20 11 4 358 349 26 52 1 343 336 332 355 39 34 44 51 38 21 81 125 212 166 152 153 149 231 294 7 14 252 124 100 146 162
33 32 27 23 21 20 15 10 8 12 9 6 3 353 347 346 90 350 351 348 344 335 38 63 79 65 68 40 2 95 156 168 192 139 107 115 286 210 146 255 217 187 189 183 195
29 27 23 18 19 17 12 6 358 1 358 354 356 358 10 39 148 346 350 355 1 22 107 82 44 62 80 94 334 99 75 90 170 129 98 199 139 268 195 229 153 195 135 186 215
20 17 16 14 13 10 7 1 351 349 356 351 348 354 34 54 12 347 355 9 23 66 54 46 71 114 111 111 86 78 149 75 101 215 261 336 245 238 242 238 245 273 232 231 229
13 10 9 7 6 5 1 356 346 345 358 5 9 19 64 71 347 351 2 28 38 49 49 40 84 107 97 68 63 108 95 30 51 216 260 246 259 147 261 205 204 195 208 226 231
3 2 2 1 0 358 353 353 347 339 354 6 13 42 61 149 13 11 17 31 30 40 61 47 65 81 142 103 127 90 93 103 47 291 246 278 257 232 227 134 167 213 247 294 260
352 351 354 354 357 356 349 345 341 331 346 354 17 55 90 21 30 17 22 41 33 46 64 49 71 96 55 121 33 52 49 81 154 346 308 53 274 279 146 189 244 259 278 273 259
340 343 349 350 351 352 349 338 337 335 355 359 30 75 83 11 30 5 10 4 7 48 48 58 62 81 47 82 28 18 201 286 315 32 331 64 282 192 142 226 269 276 268 260 269
328 339 341 344 346 348 348 338 9 35 346 52 59 51 21 319 320 345 3 10 30 320 34 42 44 73 39 67 229 228 45 252 253 330 1 279 268 282 253 238 258 264 269 253 243
320 327 333 341 345 352 353 3 15 1 39 85 285 295 331 328 343 2 353 359 11 52 43 14 63 69 185 40 91 122 150 251 260 6 307 256 278 284 295 239 259 260 264 248 225
317 328 329 338 344 360 20 67 80 277 317 8 311 318 345 350 357 349 4 74 59 83 337 21 101 138 118 86 92 71 115 275 283 211 320 330 297 292 296 268 230 268 277 235 179
335 330 337 342 342 11 59 66 51 15 102 331 25 6 311 3 74 328 20 72 82 59 31 133 131 139 142 115 86 201 175 266 271 329 69 320 295 322 305 311 283 252 242 206 200
337 338 343 348 48 17 56 14 17 82 67 319 341 3 336 50 40 336 16 102 42 151 139 143 311 161 74 216 119 317 167 59 14 41 278 22 279 301 318 306 273 272 246 238 227
348 357 3 28 43 56 344 339 331 140 3 306 336 315 331 55 312 3 6 2 106 141 89 253 154 147 112 313 121 145 47 63 75 97 37 345 59 271 348 323 311 265 251 252 244
353 2 3 15 48 22 339 331 347 40 264 339 304 338 23 16 13 315 31 54 132 119 79 187 308 52 72 58 58 118 72 44 61 93 11 251 137 277 218 203 279 244 287 287 281
3 14 35 31 40 347 338 21 31 123 341 299 329 22 133 326 3 29 16 23 61 38 351 349 349 335 27 96 57 75 53 330 351 6 232 268 310 247 269 251 225 276 288 285 294
350 4 51 50 358 345 347 51 104 237 235 324 317 351 36 1 17 337 10 352 60 87 96 110 326 28 352 89 176 75 144 152 234 271 277 14 238 249 218 209 235 252 265 288 298
5 334 1 359 349 349 63 70 204 205 236 312 10 60 324 300 188 28 285 209 190 173 155 125 286 332 30 63 88 236 53 157 100 76 26 253 283 287 259 273 242 257 276 269 293
336 330 26 353 356 20 71 266 242 255 332 16 172 122 222 272 3 58 331 211 159 167 142 199 3 267 243 113 39 138 140 48 8 342 302 285 277 240 292 266 303 282 273 282 294
317 29 348 358 58 56 180 236 295 281 320 221 243 259 224 233 180 239 235 248 150 145 105 136 98 288 59 199 179 85 8 46 124 130 191 293 261 215 233 229 265 287 281 271 289
33 2 352 94 64 123 222 157 342 303 9 271 253 209 192 175 212 257 234 219 175 158 166 193 140 219 221 133 138 158 186 163 134 242 221 178 270 217 240 245 230 274 280 285 266
12 293 10 18 228 256 354 251 198 220 248 217 262 225 145 207 270 218 230 254 164 169 167 183 313 357 335 16 6 212 194 167 126 99 200 168 265 270 249 299 254 254 283 293 290
68 320 330 50 36 192 246 254 252 339 217 213 251 138 180 258 203 262 255 190 184 208 188 163 178 188 207 207 135 197 190 209 167 153 233 230 273 282 287 294 294 289 268 279 285
38 244 192 263 237 196 187 161 204 260 198 186 311 225 178 232 205 223 228 205 204 223 176 169 216 225 256 239 194 226 204 214 204 213 213 272 237 272 285 291 292 271 295 299 300
266 248 335 258 202 201 216 212 232 237 187 201 217 228 196 218 208 203 168 196 217 173 165 183 239 113 285 274 268 265 243 234 237 236 250 259 277 270 274 287 280 272 277 287 290
219 266 258 255 167 210 238 222 238 226 228 237 213 199 207 230 234 238 193 187 200 175 189 165 152 122 257 337 336 293 236 218 185 208 194 186 233 330 301 284 263 279 244 268 281